Regional Weather Roundup
Issued by NWS

Home | Current Version | Previous Version | Graphics & Text | Print | Product List | Glossary On
Versions: 1 2 3 4 5 6 7 8 9 10 11 12 13 14 15 16 17 18 19 20 21 22 23 24 25 26 27 28 29 30 31 32 33 34 35 36 37 38 39 40 41 42 43 44 45 46 47 48 49 50
948
ASUS43 KLSX 251657
RWRMO

WEATHER SUMMARY FOR MISSOURI
NATIONAL WEATHER SERVICE SPRINGFIELD MO
1200 PM CDT TUE APR 25 2017

NOTE: "FAIR" INDICATES FEW OR NO CLOUDS BELOW 12,000 FEET WITH NO
       SIGNIFICANT WEATHER AND/OR OBSTRUCTIONS TO VISIBILITY.
       CURRENT SKY AND/OR WEATHER CONDITIONS ARE NOT AVAILABLE FOR
       CHILLICOTHE AND FARMINGTON.

MOZ001>031-035>038-043-044-053-054-251800-
...NORTHERN AND WESTERN MISSOURI...

CITY           SKY/WX    TMP DP  RH WIND       PRES   REMARKS
KANSAS CTY INT CLOUDY    70  52  52 S12       29.43F
LEE`S SUMMIT   CLOUDY    69  52  54 S16G25    29.44F
ST JOSEPH      MOSUNNY   71  52  50 MISG      29.42F
CHILLICOTHE      N/A     70  49  47 SE12G22   29.47F

$$
MOZ066>068-077>081-088>096-101>105-251800-
...SOUTHWEST MISSOURI...

CITY           SKY/WX    TMP DP  RH WIND       PRES   REMARKS
SPRINGFIELD    SUNNY     73  53  49 S14G28    29.50F
JOPLIN         SUNNY     76  57  51 S23G30    29.45F
BRANSON        PTSUNNY   75  54  46 S14G24    29.55S

$$
MOZ032>034-039>042-045>050-055>058-069>072-251800-
...CENTRAL MISSOURI...

CITY           SKY/WX    TMP DP  RH WIND       PRES   REMARKS
COLUMBIA       NOT AVBL
JEFFERSON CITY MOSUNNY   78  49  35 SE17      29.52F
ROLLA          SUNNY     73  51  46 S18G28    29.55F
SEDALIA        CLOUDY    74  53  48 S16G29    29.48F

$$
MOZ051-052-059>065-251800-
...EAST CENTRAL MISSOURI...

CITY           SKY/WX    TMP DP  RH WIND       PRES   REMARKS
ST LOUIS INTL  CLOUDY    73  49  42 S14       29.63F

$$
MOZ072>076-082>087-097>100-106>115-251800-
...SOUTH CENTRAL AND SOUTHEAST MISSOURI...

CITY           SKY/WX    TMP DP  RH WIND       PRES   REMARKS
CAPE GIRARDEAU SUNNY     74  53  48 S12       29.69F
POPLAR BLUFF   SUNNY     72  54  53 S13G22    29.68F
WEST PLAINS    SUNNY     73  51  46 S17G25    29.61F

$$



USA.gov is the U.S. government's official web portal to all federal, state and local government web resources and services.